TimeMDT,TemperatureF,Dew PointF,Humidity,Sea Level PressureIn,VisibilityMPH,Wind Direction,Wind SpeedMPH,Gust SpeedMPH,PrecipitationIn,Events,Conditions,WindDirDegrees,DateUTC
12:51 AM,26.1,21.9,84,30.44,10.0,Calm,Calm,-,N/A,,Clear,0,2012-10-05 06:51:00
1:51 AM,27.0,21.9,81,30.43,10.0,Calm,Calm,-,N/A,,Clear,0,2012-10-05 07:51:00
2:51 AM,24.1,19.9,84,30.44,10.0,NNW,3.5,-,N/A,,Clear,340,2012-10-05 08:51:00
3:51 AM,25.0,19.9,81,30.43,10.0,Calm,Calm,-,N/A,,Scattered Clouds,0,2012-10-05 09:51:00
4:51 AM,28.0,23.0,81,30.43,10.0,Calm,Calm,-,N/A,,Overcast,0,2012-10-05 10:51:00
5:51 AM,28.9,24.1,82,30.43,10.0,Calm,Calm,-,0.00,Snow,Light Snow,0,2012-10-05 11:51:00
6:51 AM,30.0,25.0,82,30.44,9.0,Calm,Calm,-,0.00,Snow,Light Snow,0,2012-10-05 12:51:00
7:51 AM,28.9,26.1,89,30.46,10.0,WSW,5.8,-,0.00,,Overcast,250,2012-10-05 13:51:00
8:51 AM,30.9,28.0,89,30.47,10.0,WSW,6.9,-,N/A,,Overcast,250,2012-10-05 14:51:00
9:19 AM,32.0,28.4,87,30.39,10.0,West,6.9,-,N/A,,Overcast,270,2012-10-05 15:19:00
9:35 AM,32.0,28.4,87,30.39,10.0,WNW,6.9,-,N/A,,Overcast,290,2012-10-05 15:35:00
9:51 AM,32.0,28.0,85,30.48,9.0,WNW,6.9,-,0.00,,Overcast,290,2012-10-05 15:51:00
10:08 AM,33.8,28.4,81,30.40,10.0,WNW,4.6,-,N/A,,Overcast,290,2012-10-05 16:08:00
10:27 AM,33.8,26.6,75,30.40,10.0,NW,3.5,-,N/A,,Overcast,310,2012-10-05 16:27:00
10:33 AM,33.8,26.6,75,30.40,10.0,NNW,8.1,-,N/A,,Overcast,340,2012-10-05 16:33:00
10:45 AM,33.8,24.8,70,30.40,10.0,NNW,8.1,-,N/A,,Overcast,330,2012-10-05 16:45:00
10:51 AM,34.0,26.1,73,30.49,10.0,NNW,6.9,-,N/A,,Overcast,330,2012-10-05 16:51:00
11:51 AM,36.0,24.1,62,30.48,9.0,NNW,8.1,-,0.00,Snow,Light Snow,330,2012-10-05 17:51:00
12:12 PM,37.4,24.8,60,30.39,9.0,WNW,5.8,-,0.00,Snow,Light Snow,300,2012-10-05 18:12:00
1:15 PM,37.4,23.0,56,30.38,10.0,NNW,8.1,-,N/A,,Mostly Cloudy,330,2012-10-05 19:15:00
1:51 PM,39.9,23.0,51,30.44,10.0,NNW,11.5,17.3,N/A,,Mostly Cloudy,340,2012-10-05 19:51:00
2:51 PM,39.9,21.9,49,30.43,10.0,NNW,12.7,-,N/A,,Scattered Clouds,340,2012-10-05 20:51:00
3:51 PM,42.1,21.0,43,30.42,10.0,NW,13.8,-,N/A,,Partly Cloudy,320,2012-10-05 21:51:00
4:51 PM,41.0,19.9,43,30.42,10.0,NNW,11.5,-,N/A,,Partly Cloudy,330,2012-10-05 22:51:00
5:51 PM,37.9,19.9,48,30.43,10.0,North,17.3,21.9,N/A,,Clear,350,2012-10-05 23:51:00
6:51 PM,34.0,21.0,59,30.45,10.0,North,8.1,-,N/A,,Scattered Clouds,350,2012-10-06 00:51:00
7:51 PM,30.9,21.0,67,30.48,10.0,North,6.9,-,N/A,,Scattered Clouds,10,2012-10-06 01:51:00
8:51 PM,28.0,19.0,69,30.49,10.0,NNE,6.9,-,N/A,,Clear,20,2012-10-06 02:51:00
10:51 PM,26.1,18.0,71,30.49,10.0,West,3.5,-,N/A,,Clear,280,2012-10-06 04:51:00
11:51 PM,23.0,17.1,78,30.49,10.0,NE,3.5,-,N/A,,Clear,40,2012-10-06 05:51:00